EW0920 Weather Reports


time (UTC)temp
F
wind
direction
speed
knots
gust
knots
rain 1hr
in
rain 24hr
in
rain mn
in
humidity
%
barometer
mb
20260901054826 73 320 0.0 0.0 0.00 0.00 0.00 99 1019.6
20260901054323 73 320 0.0 0.0 0.00 0.00 0.00 99 1019.7
20260901053819 73 320 0.0 0.0 0.00 0.00 0.00 99 1019.8
20260901053314 73 320 0.0 0.0 0.00 0.00 0.00 99 1019.7
20260901052809 73 320 0.0 0.0 0.00 0.00 0.00 99 1019.9
20260901052307 73 320 0.0 0.0 0.00 0.00 0.00 99 1019.8
20260901051757 73 320 0.0 0.0 0.00 0.00 0.00 99 1019.9
20260901051252 73 320 0.0 0.0 0.00 0.00 0.00 99 1019.5
20260901050748 73 320 0.0 0.0 0.00 0.00 0.00 99 1019.6
20260901050243 73 320 0.0 0.0 0.00 0.00 0.00 99 1019.7
20260901045738 73 320 0.0 0.0 0.00 0.00 0.00 99 1019.4
20260901045232 73 320 0.0 0.0 0.00 0.00 0.00 99 1019.5
20260901044728 73 320 0.0 0.0 0.00 0.00 0.00 99 1019.1
20260901044224 73 319 0.0 0.0 0.00 0.00 0.00 99 1019.3
20260901043720 73 329 0.0 0.0 0.00 0.00 0.00 99 1019.2
20260901043215 73 329 0.0 0.0 0.00 0.00 0.00 99 1019.1
20260901042715 73 320 0.0 0.0 0.00 0.00 0.00 99 1019.1
20260901042209 73 320 0.0 0.0 0.00 0.00 0.00 99 1019.3
20260901041706 73 321 0.0 0.0 0.00 0.00 0.00 99 1019.3
20260901041205 73 321 0.0 0.0 0.00 0.00 0.00 99 1019.3
20260901040700 73 324 0.0 0.0 0.00 0.00 0.00 99 1019.5
20260901040159 73 324 0.0 0.0 0.00 0.00 0.00 99 1019.5
20260901035657 73 324 0.0 0.0 0.00 0.00 0.00 99 1019.8
20260901035156 73 324 0.0 0.0 0.00 0.00 0.00 99 1019.6
20260901034650 73 324 0.0 0.0 0.00 0.00 0.00 99 1019.6
20260901034150 74 324 0.0 0.0 0.00 0.00 0.00 99 1019.7
20260901033650 74 324 0.0 0.0 0.00 0.00 0.00 99 1019.9
20260901033149 74 324 0.0 0.0 0.00 0.00 0.00 99 1019.9
20260901032648 74 324 0.0 0.0 0.00 0.00 0.00 99 1020.2
20260901032143 74 324 0.0 0.0 0.00 0.00 0.00 99 1019.9
20260901031633 74 324 0.0 0.0 0.00 0.00 0.00 99 1020.2
20260901031129 74 324 0.0 0.0 0.00 0.00 0.00 99 1020.3
20260901030629 74 324 0.0 0.0 0.00 0.00 0.00 99 1020.2
20260901030123 74 324 0.0 0.0 0.00 0.00 0.00 99 1020.4
20260901025618 74 324 0.0 0.0 0.00 0.00 0.00 99 1020.3
20260901025112 74 324 0.0 0.0 0.00 0.00 0.00 99 1020.5
20260901024607 74 324 0.0 0.0 0.00 0.00 0.00 99 1020.4
20260901024106 75 324 0.0 0.0 0.00 0.00 0.00 99 1020.5
20260901023605 75 324 0.0 0.0 0.00 0.00 0.00 99 1020.5
20260901023100 75 324 0.0 0.0 0.00 0.00 0.00 99 1020.5
20260901022555 75 324 0.0 0.0 0.00 0.00 0.00 99 1020.7
20260901022050 75 324 0.0 0.0 0.00 0.00 0.00 99 1020.7
20260901021546 75 324 0.0 0.0 0.00 0.00 0.00 99 1020.8
20260901021041 75 324 0.0 0.0 0.00 0.00 0.00 99 1020.4
20260901020536 75 324 0.0 0.0 0.00 0.00 0.00 99 1020.6
20260901020032 75 324 0.0 0.0 0.00 0.00 0.00 99 1020.6
20260901015527 75 324 0.0 0.0 0.00 0.00 0.00 99 1020.5
20260901015026 75 324 0.0 0.0 0.00 0.00 0.00 99 1020.7
20260901014522 75 324 0.0 0.0 0.00 0.00 0.00 99 1020.6
20260901014019 75 324 0.0 0.0 0.00 0.00 0.00 99 1020.5
20260901013514 76 324 0.0 0.0 0.00 0.00 0.00 99 1020.5
20260901013009 76 324 0.0 0.0 0.00 0.00 0.00 99 1020.6
20260901012509 76 324 0.0 0.0 0.00 0.00 0.00 99 1020.3
20260901012004 76 324 0.0 0.0 0.00 0.00 0.00 99 1020.4
20260901011501 76 324 0.0 0.0 0.00 0.00 0.00 99 1020.3
20260901010958 76 324 0.0 0.0 0.00 0.00 0.00 99 1020.1
20260901010454 77 324 0.0 0.0 0.00 0.00 0.00 99 1020.3
20260901005953 77 324 0.0 0.0 0.00 0.00 0.00 99 1020.3
20260901005448 77 324 0.0 0.0 0.00 0.00 0.00 99 1020.2
20260901004943 77 324 0.0 0.0 0.00 0.00 0.00 99 1020.3
20260901004442 77 324 0.0 0.0 0.00 0.00 0.00 99 1020.0
20260901003937 77 324 0.0 0.0 0.00 0.00 0.00 99 1019.9
20260901003432 77 324 0.0 0.0 0.00 0.00 0.00 99 1019.9
20260901002931 77 324 0.0 0.0 0.00 0.00 0.00 99 1019.7
20260901002430 78 324 0.0 0.0 0.00 0.00 0.00 99 1019.7
20260901001925 78 324 0.0 0.0 0.00 0.00 0.00 99 1019.7
20260901001420 78 324 0.0 0.0 0.00 0.00 0.00 99 1019.7
20260901000916 78 324 0.0 0.0 0.00 0.00 0.00 99 1019.7
20260901000412 78 325 0.0 0.0 0.00 0.00 0.00 98 1019.6
20260831235909 78 325 0.0 0.0 0.00 0.00 0.00 98 1019.8
20260831235405 78 324 0.0 0.0 0.00 0.00 0.00 98 1019.9
20260831234900 79 324 0.0 0.0 0.00 0.00 0.00 97 1019.7
20260831234354 79 325 0.0 0.0 0.00 0.00 0.00 97 1019.5
20260831233850 79 325 0.0 0.0 0.00 0.00 0.00 97 1019.5
20260831233345 79 325 0.0 0.0 0.00 0.00 0.00 97 1019.4
20260831232840 79 325 0.0 0.0 0.00 0.00 0.00 96 1019.4
20260831232336 79 325 0.0 0.0 0.00 0.00 0.00 96 1019.4
20260831231832 79 325 0.0 0.0 0.00 0.00 0.00 96 1019.3
20260831231328 80 325 0.0 0.0 0.00 0.00 0.00 96 1019.5
20260831230824 80 325 0.0 0.0 0.00 0.00 0.00 95 1019.2
20260831230318 80 325 0.0 0.0 0.00 0.00 0.00 95 1019.2
20260831225818 80 325 0.0 0.0 0.00 0.00 0.00 94 1019.3
20260831225313 80 325 0.0 0.0 0.00 0.00 0.00 94 1019.3
20260831224809 80 325 0.0 0.0 0.00 0.00 0.00 93 1019.3
20260831224303 81 325 0.0 0.0 0.00 0.00 0.00 93 1019.4
20260831223758 81 325 0.0 0.0 0.00 0.00 0.00 93 1019.6
20260831223254 81 325 0.0 0.0 0.00 0.00 0.00 92 1019.5
20260831222750 82 325 0.0 0.0 0.00 0.00 0.00 92 1019.4
20260831222246 82 325 0.0 0.0 0.00 0.00 0.00 92 1019.5
20260831221741 82 325 0.0 0.0 0.00 0.00 0.00 92 1019.7
20260831221237 82 325 0.0 0.0 0.00 0.00 0.00 91 1019.5
20260831220736 82 325 0.0 0.0 0.00 0.00 0.00 91 1019.7
20260831220232 83 328 0.0 0.0 0.00 0.00 0.00 90 1019.8
20260831215726 83 328 0.0 0.0 0.00 0.00 0.00 89 1019.7
20260831215222 83 329 0.0 0.0 0.00 0.00 0.00 90 1019.7
20260831214719 83 329 0.0 0.0 0.00 0.00 0.00 90 1019.8
20260831214217 83 329 0.0 0.0 0.00 0.00 0.00 90 1020.0
20260831213712 83 329 0.0 0.0 0.00 0.00 0.00 89 1019.8
20260831213208 84 329 0.0 0.0 0.00 0.00 0.00 89 1019.9
20260831212703 84 329 0.0 0.0 0.00 0.00 0.00 89 1019.9
20260831212200 84 329 0.0 0.0 0.00 0.00 0.00 88 1020.0
20260831211658 84 329 0.0 0.0 0.00 0.00 0.00 87 1019.9
20260831211153 84 329 0.0 0.0 0.00 0.00 0.00 86 1020.1
20260831210648 84 330 0.0 0.0 0.00 0.00 0.00 84 1020.2
20260831210144 84 330 0.0 0.0 0.00 0.00 0.00 84 1020.1
20260831205643 84 329 0.0 0.0 0.00 0.00 0.00 85 1020.0
20260831205140 85 340 0.0 0.0 0.00 0.00 0.00 84 1020.0
20260831204639 85 341 0.0 0.0 0.00 0.00 0.00 83 1020.1
20260831204137 86 316 0.0 0.0 0.00 0.00 0.00 80 1020.3
20260831203632 86 352 0.0 0.0 0.00 0.00 0.00 79 1020.1
20260831203132 86 326 0.0 0.9 0.00 0.00 0.00 76 1020.2
20260831202630 86 338 0.0 0.0 0.00 0.00 0.00 82 1020.1
20260831202125 86 344 0.0 0.0 0.00 0.00 0.00 80 1020.1
20260831201624 87 347 0.0 0.9 0.00 0.00 0.00 77 1020.4
20260831201119 87 199 0.0 0.9 0.00 0.00 0.00 73 1020.5
20260831200615 87 284 0.0 2.6 0.00 0.00 0.00 71 1020.5
20260831200109 87 307 0.0 0.0 0.00 0.00 0.00 76 1020.2
20260831195600 87 344 0.0 0.9 0.00 0.00 0.00 75 1020.4
20260831195055 87 326 0.0 0.0 0.00 0.00 0.00 78 1020.5
20260831194549 87 331 0.0 0.0 0.00 0.00 0.00 76 1020.5
20260831194044 86 330 0.0 0.0 0.00 0.00 0.00 80 1020.5
20260831193539 86 344 0.0 0.0 0.00 0.00 0.00 82 1020.6
20260831193039 86 324 0.0 0.0 0.00 0.00 0.00 81 1020.8
20260831192534 84 313 0.0 0.0 0.00 0.00 0.00 83 1020.8
20260831192029 84 337 0.0 0.0 0.00 0.00 0.00 80 1020.6
20260831191525 85 327 0.0 0.0 0.00 0.00 0.00 79 1020.8
20260831191021 86 307 0.0 0.0 0.00 0.00 0.00 76 1021.0
20260831190516 86 337 0.0 0.0 0.00 0.00 0.00 77 1021.1
20260831190015 86 345 0.0 0.0 0.00 0.00 0.00 74 1021.0
20260831185511 87 336 0.0 0.0 0.00 0.00 0.00 73 1021.0
20260831185006 87 344 0.0 0.9 0.00 0.00 0.00 70 1020.9
20260831184455 88 330 0.0 0.0 0.00 0.00 0.00 75 1020.9
20260831183950 88 342 0.0 0.9 0.00 0.00 0.00 72 1020.9
20260831183449 88 334 0.0 0.9 0.00 0.00 0.00 69 1020.9
20260831182943 89 329 0.0 1.7 0.00 0.00 0.00 67 1021.1
20260831182439 89 180 0.0 1.7 0.00 0.00 0.00 67 1021.2
20260831181934 90 352 0.9 2.6 0.00 0.00 0.00 67 1021.2
20260831181429 90 298 0.0 0.9 0.00 0.00 0.00 69 1021.5
20260831180923 91 318 0.0 1.7 0.00 0.00 0.00 67 1021.1
20260831180418 91 314 0.0 0.9 0.00 0.00 0.00 65 1021.1
20260831175917 90 25 0.9 0.9 0.00 0.00 0.00 66 1021.2
20260831175414 90 182 2.6 3.5 0.00 0.00 0.00 66 1021.4
20260831174909 89 353 0.9 0.9 0.00 0.00 0.00 70 1021.4
20260831174404 89 177 1.7 2.6 0.00 0.00 0.00 67 1021.4
20260831173903 88 338 0.0 0.9 0.00 0.00 0.00 73 1021.2
20260831173357 88 325 0.0 0.9 0.00 0.00 0.00 70 1021.6
20260831172853 90 313 0.9 0.9 0.00 0.00 0.00 66 1021.5
20260831172348 88 269 0.0 0.9 0.00 0.00 0.00 74 1021.2
20260831171843 89 349 0.9 0.9 0.00 0.00 0.00 73 1021.5
20260831171339 93 338 0.0 0.9 0.00 0.00 0.00 65 1021.5
20260831170836 92 297 0.0 0.0 0.00 0.00 0.00 67 1021.2
20260831170332 90 338 0.0 0.9 0.00 0.00 0.00 67 1021.6
20260831165828 90 338 0.9 1.7 0.00 0.00 0.00 70 1021.6
20260831165324 90 149 1.7 2.6 0.00 0.00 0.00 70 1021.4
20260831164820 89 301 0.0 0.0 0.00 0.00 0.00 69 1021.6
20260831164316 88 311 0.0 0.0 0.00 0.00 0.00 74 1021.7
20260831163811 89 136 1.7 1.7 0.00 0.00 0.00 71 1021.7
20260831163307 88 326 0.9 1.7 0.00 0.00 0.00 73 1021.8
20260831162805 89 341 0.0 0.9 0.00 0.00 0.00 71 1021.7
20260831162301 87 338 0.0 0.9 0.00 0.00 0.00 72 1021.9
20260831161759 87 279 0.9 0.9 0.00 0.00 0.00 76 1021.9
20260831161256 86 210 1.7 2.6 0.00 0.00 0.00 74 1022.0
20260831160755 86 174 0.9 1.7 0.00 0.00 0.00 75 1021.9
20260831160250 85 338 0.0 0.0 0.00 0.00 0.00 78 1021.7
20260831155745 85 60 0.9 1.7 0.00 0.00 0.00 78 1021.8
20260831155240 83 349 0.0 0.9 0.00 0.00 0.00 82 1021.8
20260831154736 82 291 0.0 0.9 0.00 0.00 0.00 81 1021.8
20260831154232 82 350 0.0 0.0 0.00 0.00 0.00 84 1021.9
20260831153731 82 343 0.0 0.0 0.00 0.00 0.00 83 1021.8
20260831153227 81 337 0.0 1.7 0.00 0.00 0.00 83 1021.8
20260831152722 80 298 0.0 0.0 0.00 0.00 0.00 86 1021.9
20260831152218 80 15 0.0 0.0 0.00 0.00 0.00 86 1022.0
20260831151717 79 333 0.0 1.7 0.00 0.00 0.00 88 1021.9
20260831151212 78 319 0.0 0.9 0.00 0.00 0.00 90 1021.9
20260831150707 77 328 0.0 0.0 0.00 0.00 0.00 92 1021.8
20260831150203 77 328 0.0 0.0 0.00 0.00 0.00 91 1022.1
20260831145702 77 323 0.0 0.0 0.00 0.00 0.00 93 1022.0
20260831145158 76 321 0.0 0.0 0.00 0.00 0.00 95 1022.0
20260831144654 76 322 0.0 0.0 0.00 0.00 0.00 96 1022.1
20260831144149 75 318 0.0 0.0 0.00 0.00 0.00 97 1022.1
20260831143648 75 321 0.0 0.0 0.00 0.00 0.00 98 1021.8
20260831143144 74 313 0.0 0.0 0.00 0.00 0.00 99 1021.7
20260831142640 74 315 0.0 0.0 0.00 0.00 0.00 99 1021.8
20260831142136 73 315 0.0 0.0 0.00 0.00 0.00 99 1021.8
20260831141635 73 313 0.0 0.0 0.00 0.00 0.00 99 1021.9
20260831141130 73 319 0.0 0.0 0.00 0.00 0.00 99 1022.0
20260831140629 72 319 0.0 0.0 0.00 0.00 0.00 99 1022.1
20260831140124 72 319 0.0 0.0 0.00 0.00 0.00 99 1022.0
20260831135622 72 319 0.0 0.0 0.00 0.00 0.00 99 1022.2
20260831135118 72 319 0.0 0.0 0.00 0.00 0.00 99 1022.2
20260831134614 71 319 0.0 0.0 0.00 0.00 0.00 99 1022.1
20260831134108 71 319 0.0 0.0 0.00 0.00 0.00 99 1022.1
20260831133607 71 319 0.0 0.0 0.00 0.00 0.00 99 1022.2
20260831133103 71 319 0.0 0.0 0.00 0.00 0.00 99 1021.9
20260831132559 71 319 0.0 0.0 0.00 0.00 0.00 99 1022.1
20260831132057 71 319 0.0 0.0 0.00 0.00 0.00 99 1022.0
20260831131552 71 319 0.0 0.0 0.00 0.00 0.00 99 1021.8
20260831131049 71 319 0.0 0.0 0.00 0.00 0.00 99 1022.0
20260831130543 70 319 0.0 0.0 0.00 0.00 0.00 99 1022.0
20260831130039 70 319 0.0 0.0 0.00 0.00 0.00 99 1022.0
20260831125532 70 319 0.0 0.0 0.00 0.00 0.00 99 1022.1
20260831125028 70 319 0.0 0.0 0.00 0.00 0.00 99 1021.8
20260831124524 70 319 0.0 0.0 0.00 0.00 0.00 99 1021.9
20260831124020 70 319 0.0 0.0 0.00 0.00 0.00 99 1022.0
20260831123519 70 319 0.0 0.0 0.00 0.00 0.00 99 1021.7
20260831123013 70 319 0.0 0.0 0.00 0.00 0.00 99 1021.9
20260831122508 69 319 0.0 0.0 0.00 0.00 0.00 99 1021.7
20260831122004 69 319 0.0 0.0 0.00 0.00 0.00 99 1021.9
20260831121459 69 319 0.0 0.0 0.00 0.00 0.00 99 1021.6
20260831120954 69 319 0.0 0.0 0.00 0.00 0.00 99 1021.8
20260831120454 69 319 0.0 0.0 0.00 0.00 0.00 99 1021.8
20260831115949 69 319 0.0 0.0 0.00 0.00 0.00 99 1021.6
20260831115445 69 319 0.0 0.0 0.00 0.00 0.00 99 1021.6
20260831114945 69 319 0.0 0.0 0.00 0.00 0.00 99 1021.6
20260831114443 69 319 0.0 0.0 0.00 0.00 0.00 99 1021.5
20260831113940 69 319 0.0 0.0 0.00 0.00 0.00 99 1021.5
20260831113439 69 319 0.0 0.0 0.00 0.00 0.00 99 1021.2
20260831112934 69 319 0.0 0.0 0.00 0.00 0.00 99 1021.4
20260831112434 69 319 0.0 0.0 0.00 0.00 0.00 99 1021.1
20260831111929 69 319 0.0 0.0 0.00 0.00 0.00 99 1021.2
20260831111420 69 319 0.0 0.0 0.00 0.00 0.00 99 1021.5
20260831110915 69 319 0.0 0.0 0.00 0.00 0.00 99 1021.4
20260831110415 69 319 0.0 0.0 0.00 0.00 0.00 99 1021.4
20260831105914 69 319 0.0 0.0 0.00 0.00 0.00 99 1021.2
20260831105410 69 319 0.0 0.0 0.00 0.00 0.00 99 1021.1
20260831104905 69 319 0.0 0.0 0.00 0.00 0.00 99 1021.2
20260831104401 69 319 0.0 0.0 0.00 0.00 0.00 99 1021.1
20260831103856 69 319 0.0 0.0 0.00 0.00 0.00 99 1021.0
20260831103352 69 319 0.0 0.0 0.00 0.00 0.00 99 1021.1
20260831102847 69 319 0.0 0.0 0.00 0.00 0.00 99 1020.9
20260831102341 69 319 0.0 0.0 0.00 0.00 0.00 99 1020.9
20260831101837 69 319 0.0 0.0 0.00 0.00 0.00 99 1020.8
20260831101332 69 319 0.0 0.0 0.00 0.00 0.00 99 1020.8
20260831100829 69 319 0.0 0.0 0.00 0.00 0.00 99 1020.8
20260831100324 69 319 0.0 0.0 0.00 0.00 0.00 99 1020.9
20260831095824 69 319 0.0 0.0 0.00 0.00 0.00 99 1020.9
20260831095323 69 319 0.0 0.0 0.00 0.00 0.00 99 1020.9
20260831094824 69 319 0.0 0.0 0.00 0.00 0.00 99 1020.9
20260831094319 69 319 0.0 0.0 0.00 0.00 0.00 99 1020.9
20260831093815 69 319 0.0 0.0 0.00 0.00 0.00 99 1020.7
20260831093310 69 319 0.0 0.0 0.00 0.00 0.00 99 1020.7
20260831092806 69 319 0.0 0.0 0.00 0.00 0.00 99 1020.7
20260831092302 69 319 0.0 0.0 0.00 0.00 0.00 99 1020.6
20260831091756 69 319 0.0 0.0 0.00 0.00 0.00 99 1020.6
20260831091252 69 319 0.0 0.0 0.00 0.00 0.00 99 1020.7
20260831090747 69 319 0.0 0.0 0.00 0.00 0.00 99 1020.8
20260831090243 69 319 0.0 0.0 0.00 0.00 0.00 99 1020.8
20260831085739 69 319 0.0 0.0 0.00 0.00 0.00 99 1020.8
20260831085233 69 319 0.0 0.0 0.00 0.00 0.00 99 1020.6
20260831084728 69 319 0.0 0.0 0.00 0.00 0.00 99 1020.8
20260831084225 69 319 0.0 0.0 0.00 0.00 0.00 99 1020.6
20260831083721 69 319 0.0 0.0 0.00 0.00 0.00 99 1020.7
20260831083216 68 319 0.0 0.0 0.00 0.00 0.00 99 1020.7
20260831082715 69 319 0.0 0.0 0.00 0.00 0.00 99 1020.7
20260831082210 69 319 0.0 0.0 0.00 0.00 0.00 99 1020.7
20260831081705 69 319 0.0 0.0 0.00 0.00 0.00 99 1020.8
20260831081201 69 319 0.0 0.0 0.00 0.00 0.00 99 1020.7
20260831080656 69 319 0.0 0.0 0.00 0.00 0.00 99 1020.6
20260831080150 69 319 0.0 0.0 0.00 0.00 0.00 99 1020.6
20260831075647 69 319 0.0 0.0 0.00 0.00 0.00 99 1020.6
20260831075142 69 319 0.0 0.0 0.00 0.00 0.00 99 1020.6
20260831074641 69 319 0.0 0.0 0.00 0.00 0.00 99 1020.7
20260831074136 69 319 0.0 0.0 0.00 0.00 0.00 99 1020.7
20260831073631 69 319 0.0 0.0 0.00 0.00 0.00 99 1020.9
20260831073130 69 319 0.0 0.0 0.00 0.00 0.00 99 1020.9
20260831072626 69 319 0.0 0.0 0.00 0.00 0.00 99 1021.0
20260831072122 69 319 0.0 0.0 0.00 0.00 0.00 99 1020.9
20260831071621 69 319 0.0 0.0 0.00 0.00 0.00 99 1020.8
20260831071116 69 319 0.0 0.0 0.00 0.00 0.00 99 1020.9
20260831070615 69 319 0.0 0.0 0.00 0.00 0.00 99 1021.0
20260831070110 69 319 0.0 0.0 0.00 0.00 0.00 99 1020.9
20260831065608 69 319 0.0 0.0 0.00 0.00 0.00 99 1020.6
20260831065103 70 319 0.0 0.0 0.00 0.00 0.00 99 1020.8
20260831064557 70 319 0.0 0.0 0.00 0.00 0.00 99 1020.7
20260831064053 70 319 0.0 0.0 0.00 0.00 0.00 99 1020.6
20260831063548 70 319 0.0 0.0 0.00 0.00 0.00 99 1020.7
20260831063049 70 319 0.0 0.0 0.00 0.00 0.00 99 1020.6
20260831062544 70 319 0.0 0.0 0.00 0.00 0.00 99 1020.8
20260831062043 70 319 0.0 0.0 0.00 0.00 0.00 99 1020.9
20260831061541 70 319 0.0 0.0 0.00 0.00 0.00 99 1021.0
20260831061038 70 319 0.0 0.0 0.00 0.00 0.00 99 1021.1
20260831060537 70 319 0.0 0.0 0.00 0.00 0.00 99 1021.1
20260831060033 70 319 0.0 0.0 0.00 0.00 0.00 99 1020.9
20260831055527 70 319 0.0 0.0 0.00 0.00 0.00 99 1021.0